TimePDT,TemperatureF,Dew PointF,Humidity,Sea Level PressureIn,VisibilityMPH,Wind Direction,Wind SpeedMPH,Gust SpeedMPH,PrecipitationIn,Events,Conditions,WindDirDegrees,DateUTC
12:53 AM,54.0,39.0,57,30.15,10.0,NW,12.7,-,N/A,,Clear,310,2014-03-11 07:53:00
1:53 AM,51.1,39.0,63,30.15,10.0,NW,6.9,-,N/A,,Clear,320,2014-03-11 08:53:00
2:53 AM,51.1,37.9,61,30.14,10.0,NNW,8.1,-,N/A,,Clear,340,2014-03-11 09:53:00
3:53 AM,50.0,37.9,63,30.13,10.0,North,8.1,-,N/A,,Clear,350,2014-03-11 10:53:00
4:53 AM,45.0,39.0,80,30.13,10.0,Calm,Calm,-,N/A,,Clear,0,2014-03-11 11:53:00
5:53 AM,42.1,37.9,85,30.13,10.0,Calm,Calm,-,N/A,,Clear,0,2014-03-11 12:53:00
6:53 AM,44.1,37.0,76,30.12,10.0,WNW,3.5,-,N/A,,Clear,300,2014-03-11 13:53:00
7:53 AM,46.0,37.9,73,30.13,10.0,NW,6.9,-,N/A,,Clear,320,2014-03-11 14:53:00
8:53 AM,48.9,39.9,71,30.14,10.0,NW,9.2,-,N/A,,Clear,320,2014-03-11 15:53:00
9:53 AM,51.1,42.1,71,30.15,10.0,NW,10.4,-,N/A,,Clear,320,2014-03-11 16:53:00
10:53 AM,54.0,42.1,64,30.14,10.0,West,5.8,-,N/A,,Clear,280,2014-03-11 17:53:00
11:53 AM,57.9,42.1,56,30.13,7.0,North,5.8,-,N/A,,Clear,350,2014-03-11 18:53:00
12:53 PM,61.0,42.1,50,30.10,9.0,WNW,9.2,-,N/A,,Clear,290,2014-03-11 19:53:00
1:53 PM,64.0,41.0,43,30.08,10.0,Calm,Calm,-,N/A,,Clear,0,2014-03-11 20:53:00
2:53 PM,64.9,42.1,43,30.05,7.0,Calm,Calm,-,N/A,,Clear,0,2014-03-11 21:53:00
3:00 PM,66.0,42.1,42,30.04,4.0,ENE,3.5,-,N/A,,Haze,60,2014-03-11 22:00:00
3:53 PM,66.9,42.1,40,30.03,9.0,Variable,3.5,-,N/A,,Clear,0,2014-03-11 22:53:00
4:14 PM,68.0,43.0,40,30.02,6.0,NNE,4.6,-,N/A,,Haze,30,2014-03-11 23:14:00
4:53 PM,69.1,42.1,38,30.02,7.0,North,4.6,-,N/A,,Clear,10,2014-03-11 23:53:00
5:24 PM,66.9,43.0,42,30.01,10.0,Variable,5.8,-,N/A,,Partly Cloudy,0,2014-03-12 00:24:00
5:53 PM,66.9,43.0,42,30.02,10.0,WNW,5.8,-,N/A,,Clear,300,2014-03-12 00:53:00
6:53 PM,64.9,43.0,45,30.02,10.0,WNW,4.6,-,N/A,,Clear,290,2014-03-12 01:53:00
7:53 PM,62.1,45.0,53,30.02,10.0,WNW,6.9,-,N/A,,Clear,290,2014-03-12 02:53:00
8:53 PM,59.0,44.1,58,30.02,10.0,NW,8.1,-,N/A,,Clear,310,2014-03-12 03:53:00
9:53 PM,57.0,44.1,62,30.02,10.0,West,4.6,-,N/A,,Clear,280,2014-03-12 04:53:00
10:53 PM,54.0,43.0,66,30.03,10.0,Calm,Calm,-,N/A,,Clear,0,2014-03-12 05:53:00
11:53 PM,50.0,43.0,77,30.04,10.0,Calm,Calm,-,N/A,,Clear,0,2014-03-12 06:53:00